Regional Weather Roundup
Issued by NWS Wilmington, NC

Home | Current Version | Previous Version | Text Only | Print | Product List | Glossary On
Versions: 1 2 3 4 5 6 7 8 9 10 11 12 13 14 15 16 17 18 19 20 21 22 23 24 25 26 27 28 29 30 31 32 33 34 35 36 37 38 39 40 41 42 43 44 45 46 47 48 49 50
757
ASUS42 KILM 291213
RWRILM
RWRILM
REGIONAL HOURLY WEATHER ROUNDUP
NATIONAL WEATHER SERVICE WILMINGTON NC
800 AM EDT THU JUN 29 2017

NOTE: "FAIR" INDICATES FEW OR NO CLOUDS BELOW 12,000 FEET WITH NO
SIGNIFICANT WEATHER AND/OR OBSTRUCTIONS TO VISIBILITY.

...............WFO WILMINGTON COUNTY WARNING AREA...............

......COASTAL NC AND SC COUNTIES......

CITY           SKY/WX    TMP DP  RH WIND       PRES   REMARKS
WILMINGTON     MOSUNNY   72  64  76 CALM      30.22R
N MYRTLE BEACH SUNNY     73  63  70 NE3       30.21R
MYRTLE BEACH   SUNNY     73  66  78 CALM      30.22R

......INLAND NC AND SC COUNTIES.......

CITY           SKY/WX    TMP DP  RH WIND       PRES   REMARKS
LUMBERTON      SUNNY     70  63  78 CALM      30.22R
ELIZABETHTOWN  NOT AVBL
WHITEVILLE     SUNNY     67  62  83 CALM      30.21S
FLORENCE       SUNNY     69  63  81 CALM      30.21S
DARLINGTON     SUNNY     70  64  81 CALM      30.22R
KINGSTREE      FAIR      68  63  83 CALM      30.20S
HARTSVILLE     FAIR      70  61  73 CALM      30.20S
BENNETTSVILLE  FAIR      70  64  83 E3        30.21S
CONWAY         FAIR      68  61  77 CALM      30.21S
GEORGETOWN     FAIR      73  72  94 CALM      30.21R
MARION         FAIR      68  63  83 CALM      30.21S

....................REST OF NORTH CAROLINA......................

.........EASTERN NC.........

CITY           SKY/WX    TMP DP  RH WIND       PRES   REMARKS
CAPE HATTERAS  NOT AVBL
JACKSONVILLE   SUNNY     67  64  90 CALM      30.23R
MOREHEAD CITY  MOSUNNY   76  69  79 NE5       30.23R
KENANSVILLE    SUNNY     64  61  88 CALM      30.24R
NEW BERN       MOSUNNY   71  68  90 CALM      30.24R
ELIZABETH CITY MOSUNNY   72  69  90 SW3       30.23R

.........CENTRAL NC.........

CITY           SKY/WX    TMP DP  RH WIND       PRES   REMARKS
RALEIGH DURHAM CLOUDY    68  62  81 W3        30.23R
ROCKY MOUNT    CLOUDY    66  64  93 CALM      30.22S
ROANOKE RAPIDS NOT AVBL
FAYETTEVILLE   SUNNY     70  63  78 CALM      30.22R
HOFFMAN        SUNNY     65  61  87 CALM      30.22S

.........WESTERN NC.........

CITY           SKY/WX    TMP DP  RH WIND       PRES   REMARKS
CHARLOTTE      PTSUNNY   70  61  73 S3        30.23R
GREENSBORO     PTSUNNY   67  62  84 SW7       30.22R
HICKORY        NOT AVBL
BOONE          NOT AVBL
ASHEVILLE      NOT AVBL

.....................REST OF SOUTH CAROLINA.....................

.........EASTERN SC.........

CITY           SKY/WX    TMP DP  RH WIND       PRES   REMARKS
CHARLESTON     MOSUNNY   76  67  73 NE8       30.18S
BEAUFORT MCAS  MOSUNNY   77  73  87 NE6       30.17R
HILTON HEAD    MOSUNNY   81  72  74 NE6       30.18R

.........CENTRAL SC.........

CITY           SKY/WX    TMP DP  RH WIND       PRES   REMARKS
COLUMBIA       MOSUNNY   72  63  73 E3        30.19S
ORANGEBURG     SUNNY     72  66  81 E3        30.20R
SUMTER SHAW    SUNNY     71  62  73 CALM      30.18R

.........WESTERN SC.........

CITY           SKY/WX    TMP DP  RH WIND       PRES   REMARKS
GREENVILLE     NOT AVBL
ROCK HILL      PTSUNNY   69  61  75 CALM      30.24R
ANDERSON       MOSUNNY   73  65  75 CALM      30.21S
CLEMSON        NOT AVBL
GREENWOOD      MOSUNNY   69  63  81 N5        30.22R


...................COASTAL AND OFFSHORE REPORTS..................

................LOCAL PIERS AND NC RESERVE................


STATION/POSITION TIME  SKY/WX   TEMP    WIND        PRES    VSBY
                                AIR SEA DIR/SP/G
                 (UTC)          (F)     (DEG/KT/KT) (MB)    (MI)
JOHNY MRCER PIER 1148            76 81  350/  3/  4 1022.4R
NC RESRV MASNBRO 1045            67     320/  2     1023.0
OCEAN CREST PIER NOT AVBL
SPRINGMAID  PIER 1148                               1022.2R


................COASTAL AND OFFSHORE BUOYS................


STATION/POSITION TIME  SKY/WX   TEMP    WIND        PRES    VSBY
                                AIR SEA DIR/SP/G
                 (UTC)          (F)     (DEG/KT/KT) (MB)    (MI)
DIMNDSHOAL 41025 1150            79 83  100/  8/ 10 1023.6R
WVE H/P(F/S)=  2/ 7 SWL H/P/D(F/S/D)=  2/130/ 7

CAPE LOOKOUT     1200            78      40/  9/ 11 1023.1R
ONSLOW BAY 41036 NOT AVBL
ONSLOW BAY 41064 1108            78 80   40/  8/ 10 1022.8R
ONSLOW BAY 41159 1143               80                N/A
WVE H/P(F/S)=  2/ 7

MASNBO INL 41110 1159               79                N/A
WVE H/P(F/S)=  2/ 7

WILM HARBR 41108 NOT AVBL
27SE WRITB 41037 1108            79 80   90/  8/ 10 1022.5R
FRYING PAN 41013 1200            79 79   50/  8/ 10 1022.8
SUNST NRSH 41024 1108            75 79   60/  4/  6 1022.7
CAPRS NRSH 41029 1108            85 82   80/ 12/ 17 1021.6R
EDISTO     41004 1150            80 81   80/ 10/ 12 1021.8R
WVE H/P(F/S)=  3/ 8 SWL H/P/D(F/S/D)=  2/120/ 8



..........OFFSHORE BUOYS BEYOND 100 NM OFFSHORE...........
.....IN A TRIANGLE---HAT TO BERMUDA TO BAHAMAS TO HAT.....


STATION/POSITION TIME  SKY/WX   TEMP    WIND        PRES    VSBY
                                AIR SEA DIR/SP/G
                 (UTC)          (F)     (DEG/KT/KT) (MB)    (MI)
150E HAT   41001 1200            77 79   30/ 10/ 16 1024.7
W BERMUDA  41048 1200            79 80   50/ 12/ 14 1022.3
ATLANTIC S 41049 1150            81 83  100/  4/  6 1021.3R
WVE H/P(F/S)=  3/ 9 SWL H/P/D(F/S/D)=  3/130/ 9

E BAHAMAS  41046 1200            82 83  100/ 12/ 14 1019.5
NE BAHAMAS 41047 1150            81 83  140/  8/ 14 1021.3R
WVE H/P(F/S)=  2/ 7 SWL H/P/D(F/S/D)=  2/150/ 7

120E CANVRL41010 1200            82 83   90/  6/ 10 1019.5

END




USA.gov is the U.S. government's official web portal to all federal, state and local government web resources and services.